CAPE
0 0 0 0 0 0 0 0 0 0 0 0 0 0 0 0 0 0 0 0 0 0
8 0 0 0 0 0 0 0 0 0 0 0 0 0 0 0 0 0 0 0 0 0
6 3 2 0 0 0 0 0 0 0 0 0 0 0 0 0 0 0 0 0 0 0
1 0 4 7 1 0 0 0 0 0 0 0 0 0 0 0 0 0 0 0 0 0
2 8 9 8 7 7 2 0 0 0 0 0 0 0 0 0 0 0 0 0 0 0
16 22 12 12 6 8 6 2 0 0 0 0 0 0 0 0 0 0 0 0 0 0
18 5 40 22 11 10 14 8 2 0 0 0 0 0 0 0 0 0 0 0 0 0
2 0 8 13 12 9 18 10 6 1 0 0 0 0 0 0 0 0 0 0 0 0
10 1 0 2 0 2 6 0 2 1 0 0 0 0 0 0 0 0 0 0 0 0
19 18 12 1 0 0 2 2 0 0 0 0 0 0 0 0 0 0 0 0 0 0
50 4 3 4 0 3 1 1 1 1 0 1 0 0 0 0 0 0 0 0 0 0
20 4 2 1 7 14 13 3 5 7 8 6 2 0 0 0 0 0 0 0 0 0
8 5 7 14 16 17 13 5 2 4 7 1 4 0 0 0 0 0 0 0 0 0
89 72 64 10 12 5 5 4 11 9 7 7 8 5 0 0 0 5 0 0 0 0
CIN
0 0 0 0 0 0 0 0 0 0 0 0 0 0 0 0 0 0 0 0 0 0
0 0 0 0 0 0 0 0 0 0 0 0 0 0 0 0 0 0 0 0 0 0
0 0 0 0 0 0 0 0 0 0 0 0 0 0 0 0 0 0 0 0 0 0
-1 0 0 0 0 0 0 0 0 0 0 0 0 0 0 0 0 0 0 0 0 0
-1 0 0 0 0 0 0 0 0 0 0 0 0 0 0 0 0 0 0 0 0 0
0 0 -11 0 0 0 0 0 0 0 0 0 0 0 0 0 0 0 0 0 0 0
0 0 -121 -61 -42 0 0 0 0 0 0 0 0 0 0 0 0 0 0 0 0 0
-6 -1 -81 -85 -94 -40 -62 0 0 0 0 0 0 0 0 0 0 0 0 0 0 0
-2 -1 0 -2 0 -179 -159 0 0 0 0 0 0 0 0 0 0 0 0 0 0 0
0 0 0 0 -2 0 -1 -5 0 0 0 0 0 0 0 0 0 0 0 0 0 0
-85 -2 -1 0 0 0 -1 0 0 0 0 0 0 0 0 0 0 0 0 0 0 0
-108 0 -1 0 0 0 0 0 0 0 0 0 0 0 0 0 0 0 0 0 0 0
-74 0 0 0 0 0 0 0 0 0 0 0 0 0 0 0 0 0 0 0 0 0
-40 -102 -109 0 0 -3 -1 0 0 0 0 0 0 0 0 0 0 0 -1 0 0 0
Wind_Speed
18 12 11 14 12 10 10 11 13 12 10 11 11 9 9 7 7 8 8 8 6 5
16 17 14 16 13 11 11 11 13 13 13 13 12 12 11 9 10 8 7 7 7 7
17 16 15 14 16 14 13 13 14 16 15 14 13 13 12 10 10 10 8 8 9 9
17 18 17 15 15 15 14 14 15 17 16 15 14 14 12 12 11 13 10 10 9 10
18 19 18 17 17 16 16 16 16 16 16 16 17 13 14 14 12 12 12 12 11 12
19 19 19 18 17 17 17 16 16 16 16 17 15 15 14 13 13 12 11 10 13 11
20 19 17 17 17 17 17 17 17 16 17 16 16 16 14 12 12 12 11 9 8 12
17 16 17 18 18 17 18 17 17 17 15 14 15 11 16 16 13 12 12 12 13 13
16 17 17 17 18 18 18 17 17 16 16 16 12 16 20 15 14 14 15 14 14 12
18 18 18 15 15 15 15 14 14 14 14 15 15 16 21 21 13 14 16 15 14 13
17 15 15 15 15 13 10 14 13 14 17 16 14 17 23 24 17 13 16 16 16 14
9 12 12 13 13 12 13 13 13 14 16 15 14 18 24 21 16 17 18 14 14 15
10 13 14 14 14 13 12 11 10 12 14 18 17 16 23 22 13 17 11 12 12 11
15 15 15 12 9 8 9 9 11 13 13 16 14 13 24 28 16 12 10 8 5 5
Wind_Direction
199 200 191 188 189 188 188 186 174 188 188 189 185 184 187 191 197 198 209 208 228 218
202 202 194 189 197 189 187 186 174 184 187 189 188 192 190 196 201 195 199 207 216 230
204 206 198 196 193 194 189 193 174 187 189 190 191 193 195 202 197 196 199 203 202 218
202 202 208 200 193 200 191 191 184 191 190 192 194 198 198 199 200 196 197 210 200 214
201 204 203 206 198 195 198 197 191 192 192 192 203 195 199 201 201 199 212 195 214 215
202 202 205 204 203 197 204 201 203 194 200 200 198 199 203 195 201 205 208 213 206 215
202 204 205 205 204 207 202 199 207 206 201 204 197 201 196 192 201 202 205 225 219 210
200 203 208 208 207 207 206 200 202 209 207 205 209 198 180 190 197 192 203 215 218 224
197 201 214 211 208 206 208 196 204 206 208 209 205 195 185 193 191 191 205 213 216 227
201 201 207 215 213 213 210 191 195 208 207 213 214 180 194 191 192 198 210 208 210 216
198 197 198 206 213 208 191 194 210 208 215 221 217 189 197 194 204 207 213 213 209 208
191 195 195 205 205 204 204 205 207 215 220 215 220 201 198 191 208 219 218 211 212 210
197 200 203 207 207 207 209 207 200 215 216 214 225 200 192 192 211 223 222 216 220 204
211 205 206 200 193 182 197 206 206 219 222 225 221 221 187 194 215 223 221 215 176 128